www.pogodaiklimat.ru

Погода и климат >> Архив погоды >> Россия >> Камчатский край >> Сосновка


ПОГОДА в Сосновке

  • Прогноз погоды в Сосновке
  • Монитор погоды в Сосновке

АРХИВ ПОГОДЫ в Сосновке

Время (UTC), дата Ветер
(напр.,м/с)
 
Видим.   Явления Облачность Т
(С)
Тd
(С)
f
(%)
Тe
(С)
Тes
(С)
Комфортность P
(гПа)
Po
(гПа)
Тmin
(С)
Tmax
(С)
R
(мм)
R24
(мм)
S
(см)
12 13.05 С 1 50 км ясно -0.5 -1.5 93 -3 -3 1014.4 1009.3
15 13.05 штиль 0 20 км 10/8 1000 м
[Sc Ac und]
+1.8 +0.8 93 +1 +1 1013.0 1008.0
18 13.05 штиль 0 2000 м дымка 10/10 300 м
[St]
+1.0 +0.4 96 -0 -0 1013.0 1008.0
21 13.05 Ю 1 500 м туман ?/? +1.3 +1.0 98 -1 -1 1011.2 1006.2 -1.0
00 14.05 Ю 2 50 км {туман} 9/0
[Cs]
+8.8 +2.4 64 +7 +19 опасность
простуды
1008.2 1003.3
03 14.05 В 2 50 км 9/6 1000 м
[Sc Ac trans]
+9.9 +3.6 65 +9 +10 1006.1 1001.3
06 14.05 ЮЗ 7-10
{10}
50 км 3/1 1000 м
[Sc Ci fib]
+14.1 -1.2 35 +12 +13 1003.1 998.4
09 14.05 З 8-12
{12}
50 км 1/1 1000 м
[Sc]
+9.4 -1.4 47 +6 +6 1001.5 996.6 +15.4
12 14.05 З 9-11
{11}
50 км 3/0
[Ci fib]
+6.7 -0.7 59 +2 +2 1001.6 996.7
15 14.05 З 7-11
{11}
50 км 3/0
[Ci fib]
+6.3 -1.5 57 +2 +2 1000.0 995.2
18 14.05 З 4
{12}
50 км 1/1 1000 м
[Sc]
+3.4 -2.8 64 -1 -1 1002.2 997.3
21 14.05 З 3 50 км 8/3 1000 м
[Sc Ac trans Ci fib]
+9.3 -4.1 39 +8 +10 1001.6 996.8 +2.1
00 15.05 ЮВ 5 50 км 9/4 1000 м
[Sc Ac trans Ci fib]
+11.8 -3.4 34 +10 +12 1002.8 997.9
03 15.05 Ю 4 50 км 8/5 1000 м
[Sc Ac trans Ci fib]
+13.9 -1.7 34 +13 +16 1006.1 1001.3
06 15.05 ЮЗ 4 50 км 9/5 1000 м
[Sc Ac trans Ci fib]
+9.2 +0.6 55 +7 +7 1008.9 1004.0
09 15.05 СВ 2 50 км 9/4 1000 м
[Sc Ac trans Ci fib]
+5.5 +0.9 72 +3 +3 1011.6 1006.7 +15.3
12 15.05 СВ 1 20 км 9/8 1000 м
[Sc Ac trans]
+3.9 +0.9 81 +3 +3 1014.3 1009.3
15 15.05 штиль 0 50 км 9/3 1000 м
[Sc Ac trans Ci fib]
+3.0 +0.7 85 +2 +2 1015.7 1010.7
18 15.05 штиль 0 50 км 9/3 1000 м
[Sc Ac trans Ci fib]
+2.0 +0.5 90 +1 +1 1017.0 1012.0
21 15.05 Ю 1 50 км 8/3 1000 м
[Sc Ac trans Ci fib]
+7.5 +1.9 68 +7 +10 1017.4 1012.5 +1.8
00 16.05 В 3 50 км 9/6 1000 м
[Sc Ac trans Ci fib]
+10.7 +2.1 55 +9 +12 1018.1 1013.2
03 16.05 В 4 50 км 9/4 1000 м
[Sc Ac trans Ci fib]
+11.5 +2.0 52 +10 +11 1019.6 1014.7
06 16.05 В 3 50 км 10/8 1000 м
[Sc Ac und]
+8.1 +2.3 67 +6 +6 1020.9 1016.0
09 16.05 В 2 50 км 9/6 1000 м
[Sc Ac trans Ci fib]
+4.5 +2.0 84 +2 +2 1022.3 1017.3 +13.1
12 16.05 СВ 1 50 км 9/5 1000 м
[Sc Ac trans]
+3.9 +1.8 86 +2 +2 1023.7 1018.7
15 16.05 СЗ 2 50 км 4/3 1000 м
[Sc Ci fib]
-0.3 -1.4 92 -4 -4 1025.1 1020.0
18 16.05 штиль 0 50 км 3/3 1000 м
[Sc Ci fib]
-1.7 -2.1 97 -3 -3 1026.4 1021.3
21 16.05 ЮВ 1 50 км 8/1 1000 м
[Sc Ci fib]
+5.4 +2.3 80 +4 +9 1025.0 1020.0 -2.4
00 17.05 Ю 2 50 км 4/4 1000 м
[Sc]
+12.1 +2.5 52 +11 +20 1023.9 1019.0
03 17.05 В 5 50 км 4/4 1000 м
[Cu hum]
+11.7 +3.5 57 +9 +14 1024.9 1020.0
06 17.05 В 4 50 км 8/0
[Ci fib]
+8.4 +2.2 65 +6 +7 1025.0 1020.0
09 17.05 В 2 50 км 9/4 1000 м
[Sc Ci fib]
+4.5 +2.5 87 +2 +2 1026.3 1021.3 +12.5
12 17.05 штиль 0 50 км 10/9 1000 м
[Sc Ci fib]
+3.4 +2.5 94 +2 +2 1026.3 1021.3
15 17.05 З 1 200 м туман ?/? +0.5 +0.1 97 -2 -2 1026.4 1021.3
18 17.05 З 1 50 км {туман} 8/1 1000 м
[Sc Ci fib]
-2.1 -2.4 98 -5 -5 1025.1 1020.0
21 17.05 ЮВ 2 50 км 1/0
[Ci fib]
+9.8 +0.8 53 +9 +14 1022.9 1018.0 -2.7
00 18.05 ЮЗ 7 50 км 1/0
[Ci fib]
+15.9 +0.5 35 +15 +18 1020.9 1016.0
03 18.05 ЮЗ 9-12
{12}
50 км 4/0
[Cs]
+16.8 +0.2 32 +15 +17 1020.1 1015.3
06 18.05 ЮЗ 9-15
{15}
50 км 6/0
[Cs]
+15.5 -0.7 33 +14 +14 1019.2 1014.4
09 18.05 ЮЗ 6 50 км ясно +11.6 -0.9 42 +9 +9 1020.9 1016.0 +18.2
12 18.05 З 1 50 км ясно +5.2 -1.0 64 +4 +4 1021.0 1016.0
15 18.05 СЗ 2 н/о н/о +2.5 -1.1 77 -1 -1 1019.7 1014.7
18 18.05 З 1 50 км 10/3 1000 м
[Sc Ac und]
+3.6 -0.6 74 +2 +2 1019.7 1014.7
21 18.05 штиль 0 50 км слаб. ливневой дождь 10/9 1000 м
[Cb cap Ac und]
+7.9 +3.5 74 +7 +7 1017.6 1012.7 +0.9 0.0
00 19.05 штиль 0 20 км слаб. ливневой дождь 10/9 600 м
[Cb cap Ac und]
+8.0 +6.5 90 +7 +8 1015.7 1010.8
03 19.05 ЮВ 1 20 км {ливн. осадки} 9/6 600 м
[Sc diur, vesp Ac trans Ci fib]
+12.2 +7.1 71 +12 +14 1014.1 1009.3
06 19.05 В 3 20 км {ливн. осадки} 9/3 1000 м
[Sc Ac trans Ci fib]
+10.7 +5.0 68 +9 +9 1010.1 1005.3
09 19.05 Ю 1 2000 м слаб. ливневой дождь 10/10 300 м
[Cb cap]
+5.3 +4.6 95 +4 +4 1008.9 1004.0 +14.8 1
12 19.05 ЮЗ 1 10 км {ливн. осадки} 10/8 600 м
[Sc diur, vesp Ac und]
+5.7 +5.3 97 +4 +4 1007.5 1002.6
15 19.05 штиль 0 50 км 3/1 1000 м
[Sc Ci fib]
+2.8 +2.4 97 +2 +2 1007.7 1002.7
18 19.05 В 2 50 км 7 баллов +4.6 +3.1 90 +2 +2 1006.2 1001.3
21 19.05 ЮЗ 3 50 км слаб. ливневой дождь 6/5 1000 м
[Cb cap Ac trans]
+13.2 +5.9 61 +12 +14 1005.8 1001.0 +1.9 0.3
00 20.05 З 7-13
{13}
50 км в посл. час ливневой дождь 3/3 1000 м
[Sc diur, vesp]
+15.2 +4.0 47 +14 +16 1004.4 999.6
03 20.05 З 7-14
{14}
50 км 3/3 1000 м
[Sc Ci fib]
+14.6 +2.4 44 +13 +16 1005.8 1001.1
06 20.05 З 8-13
{13}
50 км 4/1 1000 м
[Sc Ci fib]
+14.0 +2.2 45 +12 +13 1006.8 1002.0
09 20.05 ЮЗ 6 50 км 7 баллов +11.9 +1.8 50 +9 +9 1008.8 1004.0 +16.4 0.2

 

Местоположение метеостанции Сосновка (Камчатский край, Россия): широта 53.08 долгота 158.30 высота над уровнем моря 40 м.

В архиве по умолчанию представлена погода в Сосновке за последнюю неделю. Архивные данные за месяц целиком и за предыдущие месяцы, начиная с января 2011 года, Вы можете получить, выбрав интересующий диапазон дат из раскрывающегося списка и нажав кнопку "Ввод!".


*Определитесь, кто Вы:
робот инопланетянин человек

Внимание! Время в таблицах - всемирное. Для получения местного времени необходимо прибавить поправку, которая равна 12 ч.

Смотрите также архив погоды в соседних городах и на ближайших метеорологических станциях:

Погода в Петропавловск-Камч. 2 (Камчатский край, Россия) (13 км)
Погода в Петропавловск-Камчатском (Камчатский край, Россия) (31 км)
Погода в Петропавловском Маяке (Камчатский край, Россия) (35 км)
Погода в Начиках (Камчатский край, Россия) (40 км)
Погода в Пущино (Камчатский край, Россия) (124 км)
Погода в Большерецке (Камчатский край, Россия) (137 км)
Погода в Водопадной (Камчатский край, Россия) (142 км)
Погода в Семячике (Камчатский край, Россия) (157 км)
Погода в Мильково (Камчатский край, Россия) (178 км)
Погода в Соболево (Камчатский край, Россия) (208 км)

Пояснения к столбцам:

Ветер - указаны скорость ветра в м/с - средняя за 10 мин, порывы в срок и между сроками (в фигурных скобках) и направление, откуда дует ветер: С - северный, СВ - северо-восточный, В - восточный, ЮВ - юго-восточный, Ю - южный, ЮЗ - юго-западный, З - западный, СЗ - северо-западный.
Видимость - горизонтальная дальность видимости в метрах или километрах. При видимости от 1 до 10 км при отсутствии осадков обычно наблюдается дымка, при ухудшении видимости до 1 км и менее - туман. В сухую погоду видимость может ухудшаться дымом, пылью или мглою.
Явления - указаны атмосферные явления, наблюдавшиеся в срок или в последний час перед сроком; фигурными скобками обозначены явления, наблюдавшиеся между сроками (за 1-3 часа до срока); квадратными скобками обозначены град или гололедные отложения с указанием их диаметра в мм.
Облачность - указаны через наклонную черту общая и нижняя облачность в баллах и высота нижней границы облаков в метрах; квадратными скобками обозначены формы облаков: Ci - перистые, Cs - перисто-слоистые, Cc - перисто-кучевые, Ac - высококучевые, As - высокослоистые, Sc - слоисто-кучевые, Ns - слоисто-дождевые, Cu - кучевые, Cb - кучево-дождевые. Подробнее классификацию облаков см. в Атласе облаков (PDF).
T - Температура воздуха - температура, измеренная на высоте 2 м над землей.
Td - Температура точки росы - температура, при понижении до которой содержащийся в воздухе водяной пар достигнет насыщения.
f - Относительная влажность воздуха - влажноcть воздуха, измеренная на высоте 2 м над землей.
Te - Эффективная температура - температура, которую ощущает одетый по сезону человек в тени. Характеристика душности погоды. При расчете учитывается влияние влажности воздуха и скорости ветра на теплоощущения человека.
Tes - Эффективная температура на солнце - температура, которую ощущает человек, с поправкой на солнечный нагрев. Характеристика знойности погоды. Зависит от высоты солнца над горизонтом, облачности и скорости ветра. Ночью, в пасмурную погоду, а также при ветре 12 м/с и более поправка равна нулю.
P - Атмосферное давление - приведенное к уровню моря атмосферное давление.
Po - Атмосферное давление - измеренное на уровне метеостанции атмосферное давление.
Tmin - Минимальная температура - минимум температуры воздуха на высоте 2 м над землей.
Tmax - Максимальная температура - максимум температуры воздуха на высоте 2 м над землей.
R - Количество осадков - Количество выпавших осадков за период времени, мм. При наведении курсора мыши на число - период времени, за который выпало указанное количество осадков.
R24 - Количество осадков - Количество выпавших осадков за 24 часа, мм.
S - Снежный покров - Высота снежного покрова, см. При наведении курсора мыши на число - состояние снежного покрова и степень покрытия местности в баллах.